CZ-6A DEB, 54609

Orbit data source: Space-Track

CZ-6A DEB, 54609 is space debris in SSO originally from a launch on Fri, 11 Nov 2022 UTC launched from the Taiyaun Space Center, China (TSC). Debris objects in space refer to the collection of defunct objects orbiting the Earth. Examples of debris include non-operational satellites, rocket bodies, and fragments generated from explosions, collisions, or faulty payload assembly.

Loading next visibility...
Identifier
54609, 2022-151NK
Orbit
SSO
Country
Flag of CNCN / PRC
Related business
Manufacturer
SAST
Mission
Spacecraft
Bus & Motor
Unknown
Mass
Unknown
Launch date (UTC)
2022-11-11 (4 years ago)
Launch vehicle
Unknown
Launch site
Taiyaun Space Center, China (TSC)
Object type
Payload
Rocket body
Debris
Shape & HBR
Unknown shape, 0.1 m
Radar Cross Section
Small (<0.1 m²)

Expand to show TLE details & history
Last TLE update: 2 days ago

TLE from 2 days ago
0 CZ-6A DEB
1 54609U 22151NK  26171.10913044  .00004856  00000-0  13375-2 0  9998
2 54609  98.7276 215.1896 0033249 273.2610  86.4778 14.47030525188007
Epoch: 2026-06-20T02:37Z
TLE epoch observation values (Epoch: 2026-06-20T02:37:08.870Z)
Latitude
0.00004°
Longitude
-92.42584°
Altitude
736.94 km
Speed
7.487 km/s
True Right ascension
14h 20m 45s
True Declination
0° 00' 00"
Sunlit
Object was in full shadow at epoch
Visualization orbit readout
Latitude
Unknown
Longitude
Unknown
Altitude
Unknown
Speed
Unknown
Apparent Right ascension
Unknown
Apparent Declination
Unknown
Sunlit
N/A
Visualization observer readout
Local Sidereal Time
21:29:16
Azimuth
Unknown
Elevation
Unknown
Doppler factor
Unknown
Orbital elements
Apogee altitude
756.129 km
Perigee altitude
708.845 km
Semi-major axis
7,110.624 km
Eccentricity
0.00332
Inclination
98.7276°
RAAN
215.1896°
Arg. of periapsis
273.261°
True anomaly
86.85818°
Mean anomaly
86.4778°
Eccentric anomaly
86.66798°
Mean motion
3.61978 °/min
Orbital period
99.45 mins
BSTAR
0.0013375
Loading maneuver chart data...
Computing Atmospheric mass density...
Loading historical data...
Loading historical data...
Loading historical data...
Loading historical data...
Loading historical data...
Loading historical data...
Loading historical data...

Documentation

Showing up to 5 results
|